GEFSNGP_con_probscp_360.txt.gz
Probability
0 0 0 0 0 1 1 1 0 1 3 8 10 9 7 7 11 16 18 22 32 43 49 51 54 56 53 46 42 43 43 41 37 35 34 33 33 34 36 35 29 26 27 27
0 0 0 0 0 0 0 0 0 1 3 6 8 7 7 10 14 18 19 22 32 43 48 48 50 50 48 44 41 41 41 38 36 35 34 32 32 34 37 36 31 27 28 29
0 0 0 0 0 0 1 1 0 1 2 4 5 7 10 14 18 22 22 25 33 41 45 45 44 43 43 41 40 41 41 39 37 35 34 32 32 33 36 37 35 32 31 32
1 0 0 0 0 0 1 1 1 1 1 2 5 10 14 17 20 23 24 28 34 37 40 41 41 41 41 40 40 42 44 44 42 39 37 37 36 35 37 39 39 39 37 35
1 0 0 1 1 1 1 1 2 2 2 3 7 13 19 22 23 24 26 31 34 33 34 38 41 42 42 40 40 42 44 44 43 41 40 41 39 38 39 40 41 41 40 39
1 0 1 2 2 1 2 5 7 7 7 8 10 16 24 29 29 28 29 32 33 30 30 35 39 40 39 38 39 40 41 41 39 37 38 39 38 39 39 39 38 38 39 39
0 0 1 3 3 5 9 15 16 15 14 16 17 22 30 33 32 30 29 30 30 30 31 33 36 36 36 37 38 39 39 37 35 34 35 36 36 38 39 38 36 35 35 36
2 3 5 6 7 10 17 21 19 18 20 22 24 28 32 34 32 30 28 26 26 30 34 34 34 33 35 38 39 40 40 38 36 35 35 35 36 36 37 37 34 33 32 32
6 6 8 9 9 12 16 18 16 15 18 22 26 28 31 32 31 28 27 25 25 28 33 35 33 31 33 36 38 41 43 42 39 37 36 35 35 33 33 33 32 31 30 29
10 9 10 10 10 11 13 13 12 12 15 19 23 27 30 31 31 29 27 25 25 27 30 31 30 29 30 33 36 40 43 43 40 36 34 33 33 30 28 29 29 27 27 26
13 13 12 12 9 9 12 13 13 14 16 18 22 27 30 31 32 29 26 25 25 26 27 26 26 27 28 30 34 37 39 39 36 32 29 30 28 25 23 23 22 20 20 21
16 15 14 11 8 8 10 12 14 17 19 19 21 26 28 28 29 27 25 25 25 25 24 24 25 25 25 29 34 36 34 33 31 28 25 22 19 17 15 15 13 12 13 13
13 13 12 9 7 7 8 10 15 18 19 18 20 24 24 24 25 24 23 23 23 21 21 21 23 23 23 27 31 32 29 26 25 23 19 14 11 9 9 9 9 9 8 8
8 8 8 8 8 8 10 13 16 17 17 17 19 21 21 22 23 23 23 22 21 20 20 20 22 23 23 26 28 25 21 18 17 17 13 8 6 6 6 7 8 9 8 7
5 5 6 8 9 10 12 15 15 15 14 13 15 17 17 19 22 23 23 23 22 21 21 22 23 24 24 25 25 22 17 12 11 12 9 6 4 4 4 5 7 8 9 9
4 5 7 9 10 9 10 13 13 11 10 10 12 13 13 15 18 20 21 22 21 22 23 24 23 23 23 24 23 20 15 9 8 8 6 4 3 3 3 4 5 6 8 9
6 7 8 9 9 8 9 11 11 8 7 9 10 10 11 14 15 15 16 17 18 19 22 23 22 21 22 21 18 14 9 5 4 3 2 1 2 3 3 3 3 4 5 6
8 9 8 8 9 9 10 11 10 8 7 8 10 11 13 15 15 13 12 14 15 16 18 19 20 20 20 17 13 8 4 1 1 1 0 0 1 2 3 3 3 4 4 4
7 8 9 8 8 7 8 10 9 8 7 8 11 15 17 18 15 13 13 15 15 14 15 17 16 16 16 13 9 6 2 0 0 0 0 0 0 1 2 3 3 4 4 3
5 5 6 7 6 6 7 9 10 9 9 10 14 17 19 19 16 13 14 15 15 14 14 14 13 13 13 10 6 3 1 0 0 0 0 0 0 0 1 1 2 3 3 3
2 2 4 6 7 7 8 9 11 12 13 14 16 18 19 17 14 12 13 13 12 13 12 11 11 11 9 7 3 1 0 0 0 0 0 0 0 0 0 0 1 1 3 3
2 3 6 7 8 9 10 10 11 14 16 16 17 17 16 13 11 10 11 10 9 9 9 9 9 6 4 3 2 1 1 0 0 0 0 0 1 1 1 0 0 1 2 3
5 6 8 8 8 9 9 8 9 12 14 15 15 14 11 9 9 8 8 8 7 7 6 6 5 2 1 2 2 1 0 0 1 1 1 1 2 2 1 1 1 1 3 3
8 9 9 10 9 7 5 6 8 11 12 11 11 9 7 7 8 8 7 6 5 4 4 3 1 1 1 2 1 0 0 1 3 3 3 3 3 3 1 1 1 2 3 3
7 8 9 11 10 6 3 4 8 10 9 7 6 5 5 6 8 8 6 5 3 2 2 1 0 1 2 3 2 0 1 2 4 4 3 3 2 2 1 0 1 2 3 3
5 6 8 9 9 6 3 2 5 6 5 4 3 3 3 5 7 7 5 4 2 2 2 2 1 1 3 3 1 0 1 3 3 2 2 1 1 1 1 1 2 3 3 3
4 4 6 8 8 6 2 1 1 3 3 3 3 3 3 4 4 4 3 3 3 3 3 3 2 2 3 2 1 1 2 2 1 1 1 0 0 1 2 2 3 3 3 3

GEFSNGP_con_probscp_366.txt.gz
Probability
0 0 0 0 0 0 0 0 0 1 2 5 7 7 5 6 11 17 22 21 16 12 10 10 14 19 21 20 19 19 19 18 17 16 14 12 12 11 9 7 6 6 5 6
0 0 0 0 0 0 0 0 0 0 2 4 5 5 5 7 12 20 24 22 17 13 13 14 16 19 20 18 16 16 16 16 16 15 14 13 12 10 8 7 6 6 7 7
0 0 0 0 0 0 0 0 0 1 2 4 4 4 3 6 12 19 23 20 17 16 16 17 19 20 19 17 16 15 15 15 15 16 16 16 14 11 8 7 7 8 8 9
0 0 0 0 0 0 0 0 1 2 4 5 6 5 5 6 9 14 17 16 16 17 18 18 19 20 18 16 16 17 17 17 17 18 20 20 18 14 11 9 9 8 9 9
0 0 0 0 1 1 1 1 1 4 6 6 7 9 9 9 9 11 13 14 14 16 17 16 15 17 17 15 15 16 17 18 20 21 23 23 21 18 15 13 11 9 8 8
0 0 1 1 3 3 2 1 2 5 7 7 8 10 11 11 12 13 14 15 15 16 16 14 13 16 17 16 15 16 17 18 20 22 24 24 22 21 19 17 15 13 10 9
0 1 2 4 5 4 3 3 4 6 8 8 8 9 10 11 12 13 14 16 16 16 15 13 13 16 19 18 17 17 18 18 21 24 24 23 21 21 20 18 17 16 14 13
1 2 3 5 6 5 5 7 7 7 9 10 10 10 10 11 12 13 14 16 17 17 16 14 14 16 19 19 18 18 19 20 23 25 24 22 19 18 18 17 16 15 15 13
1 2 3 4 5 5 7 9 10 10 12 13 13 13 13 13 13 15 16 16 17 17 16 15 14 16 17 19 20 19 18 19 20 21 21 19 16 15 16 16 15 14 13 12
2 3 4 5 5 7 8 10 12 13 14 16 16 15 15 14 15 17 18 19 19 18 17 16 14 14 16 18 20 18 15 15 16 16 16 15 14 14 14 14 13 13 12 12
3 3 5 7 8 9 10 12 13 14 14 15 16 15 14 14 15 17 19 21 20 18 17 16 14 13 14 16 17 15 11 11 12 13 14 14 13 12 10 9 9 9 9 9
3 2 3 6 8 8 8 9 12 13 12 12 12 13 13 13 15 17 19 19 19 17 16 16 14 13 13 14 15 13 10 9 9 10 12 13 13 10 8 5 4 4 4 5
3 3 3 4 5 5 5 6 9 10 9 8 9 11 13 14 15 16 16 16 16 15 14 14 14 14 14 14 13 12 10 8 6 7 8 10 11 10 7 4 2 1 2 2
4 4 4 3 2 3 5 6 7 8 6 5 6 9 12 13 14 14 14 14 14 13 12 11 11 12 12 12 11 9 8 7 6 5 6 7 8 8 6 3 2 2 2 2
4 4 3 2 1 3 5 6 7 6 4 3 4 6 8 10 11 11 11 11 11 11 10 9 8 8 9 10 9 7 7 6 5 4 5 5 5 4 3 2 1 1 1 1
5 3 1 0 0 2 4 5 6 5 4 3 3 3 5 6 8 8 8 7 8 8 7 7 6 5 6 8 7 6 6 5 3 2 3 4 3 2 1 0 0 0 0 1
4 2 1 0 0 1 3 4 4 4 4 4 3 3 3 4 5 4 4 4 4 5 6 6 5 4 5 6 6 5 5 4 1 1 2 2 2 1 0 0 0 0 0 0
1 1 0 0 0 1 2 3 3 3 4 4 3 3 3 3 3 3 3 3 3 4 4 4 4 3 4 6 5 4 3 2 1 0 1 1 1 0 0 0 0 0 0 0
0 0 0 0 0 1 2 3 2 2 3 3 3 3 3 4 4 4 4 4 3 3 3 3 3 3 4 4 4 3 3 1 0 0 0 0 0 0 0 0 0 0 0 0
0 0 0 0 1 2 3 3 2 2 3 3 3 3 4 5 6 6 5 4 4 3 3 3 3 3 3 3 3 3 2 1 0 0 0 0 0 0 0 0 0 0 0 0
1 1 0 0 1 2 3 3 2 1 2 3 3 4 5 5 6 5 4 4 3 3 3 3 3 3 1 1 2 2 2 1 0 0 0 0 0 0 0 0 0 0 0 0
2 1 1 1 1 3 3 3 2 1 1 3 3 4 4 4 3 3 3 3 3 3 3 3 3 2 1 0 1 1 1 0 0 0 0 0 0 0 0 0 0 0 0 0
2 2 1 2 3 3 3 3 2 1 1 2 3 3 3 2 1 2 2 2 3 3 3 3 2 1 0 0 0 0 0 0 0 0 0 0 0 0 0 0 0 0 0 0
2 2 2 2 2 2 2 1 1 0 1 1 2 2 2 1 1 1 1 1 1 2 3 2 1 0 0 0 0 0 0 0 0 0 0 0 0 0 0 0 0 0 0 0
2 3 2 1 1 1 1 0 0 0 0 0 1 2 3 3 2 1 0 0 0 1 2 1 0 0 0 0 0 0 0 0 0 0 0 0 0 0 0 0 0 0 0 0
2 2 1 0 0 0 0 0 0 0 0 0 0 1 3 4 3 2 0 0 0 0 0 0 0 0 0 0 0 0 0 0 0 0 0 0 0 0 0 0 0 0 0 0
3 2 1 0 0 0 0 0 0 0 0 0 0 0 2 4 4 1 0 0 0 0 0 0 0 0 0 0 0 0 0 0 0 0 0 0 0 0 0 0 0 0 0 0

GEFSNGP_con_probscp_372.txt.gz
Probability
0 0 0 0 0 0 0 0 0 0 0 0 0 0 1 2 5 7 5 3 3 1 1 4 7 7 5 5 7 7 6 3 2 4 5 5 6 8 8 7 5 4 4 3
0 0 0 0 0 0 0 0 0 0 0 1 0 0 1 4 7 7 5 3 3 2 1 3 7 8 6 6 6 6 6 4 3 3 4 5 7 9 11 10 9 7 5 4
0 0 0 0 0 1 2 2 1 0 1 3 3 2 3 6 7 7 5 3 3 2 1 3 5 6 6 6 6 5 5 5 4 3 3 5 8 11 13 14 13 10 7 6
0 0 0 0 1 3 5 6 4 2 4 7 7 6 5 6 7 5 4 3 4 4 3 3 4 5 6 7 7 6 7 7 6 5 4 6 9 12 13 14 14 13 9 8
0 0 0 0 1 3 5 6 6 6 7 8 7 5 5 5 5 4 3 4 5 5 5 5 4 4 6 8 8 8 9 10 10 8 7 7 8 10 12 13 14 13 11 10
0 0 0 0 1 2 2 3 5 8 9 7 4 3 3 4 4 4 5 5 5 5 5 4 4 5 7 8 8 7 8 11 12 11 9 7 5 6 8 11 13 14 13 12
0 0 0 1 3 4 3 2 3 6 7 6 3 2 2 3 4 6 7 6 4 4 4 4 5 6 8 8 7 6 6 8 10 10 9 7 4 4 5 8 11 13 13 12
0 0 0 1 3 4 3 2 2 4 6 5 3 1 1 3 5 6 6 6 5 5 5 6 5 6 8 9 7 6 6 7 7 8 9 8 6 5 6 8 9 11 11 11
0 0 0 0 1 1 1 1 1 3 4 3 2 2 2 3 6 6 6 7 7 7 7 7 6 7 9 10 9 8 7 7 6 7 8 8 8 7 7 9 9 10 9 8
0 0 0 0 0 0 1 1 2 3 3 2 2 2 2 4 5 6 7 7 8 8 8 8 7 8 10 12 11 9 8 8 7 7 6 8 8 7 8 9 10 10 9 8
0 0 0 0 0 1 3 4 4 3 4 3 3 3 3 4 5 6 6 5 6 8 9 9 9 9 10 12 11 10 9 9 8 7 6 7 7 7 7 7 8 8 8 8
0 0 0 0 0 2 4 6 6 5 5 6 5 4 4 4 5 6 5 4 5 7 10 11 10 10 10 10 10 10 10 9 8 7 6 6 7 6 5 5 5 4 4 5
0 0 0 0 0 1 3 5 6 6 5 5 5 5 4 4 4 5 5 4 5 8 11 12 12 11 10 10 10 10 9 8 7 7 6 6 6 6 5 4 3 2 1 1
0 0 0 0 0 0 1 2 3 3 2 2 3 4 4 3 3 4 4 4 5 8 11 12 12 12 12 11 10 9 8 6 6 6 6 6 6 5 5 5 4 2 0 0
1 1 0 0 0 0 0 0 1 1 1 1 3 3 3 3 2 1 2 2 4 7 9 10 11 12 12 10 9 8 6 4 4 4 4 4 4 4 5 5 4 2 0 0
2 1 0 0 0 0 0 0 1 2 2 2 2 2 3 2 1 0 0 1 3 5 7 8 9 9 9 9 7 6 4 3 3 3 3 3 3 3 4 5 5 2 0 0
2 1 0 0 0 0 0 0 1 2 3 3 2 1 1 1 1 0 0 1 2 4 6 7 7 7 7 7 6 5 4 3 3 3 3 3 3 3 3 4 4 2 0 0
1 0 0 0 0 0 0 0 0 1 2 3 2 1 0 0 0 0 0 0 1 2 4 5 6 6 6 6 6 5 4 3 3 3 2 2 2 2 2 2 2 1 0 0
0 0 0 0 0 0 0 0 0 0 1 3 3 2 1 0 0 0 0 0 0 0 2 3 3 4 5 6 5 4 3 3 2 1 1 1 1 1 1 1 0 0 0 0
0 0 0 0 0 0 0 0 0 0 1 2 3 3 2 1 0 0 0 0 0 0 0 1 1 2 4 4 4 3 3 1 1 0 0 0 0 0 0 0 0 0 0 0
0 0 0 0 0 0 0 0 0 0 0 1 2 3 2 1 0 0 0 0 0 0 0 0 0 1 3 3 3 3 3 1 1 0 0 0 0 0 0 0 0 0 0 0
0 0 0 0 0 0 0 0 0 0 0 0 1 2 2 1 0 0 0 0 0 0 0 0 0 1 2 3 3 3 3 3 2 1 0 0 0 0 0 0 0 0 0 0
0 0 0 0 0 0 0 0 0 0 0 0 0 1 1 0 0 0 0 0 0 0 0 0 0 0 1 2 3 3 3 3 2 1 0 0 0 0 0 0 0 0 0 0
0 0 0 0 0 0 0 0 0 0 0 0 0 0 0 0 0 0 0 0 0 0 0 0 0 0 0 2 3 3 3 3 1 0 0 0 0 0 0 0 0 0 0 0
0 0 0 0 0 0 0 0 0 0 0 0 0 0 0 0 0 0 0 0 0 0 0 0 0 0 0 1 3 3 3 2 1 0 0 0 0 0 0 0 0 0 0 0
0 0 0 0 0 0 0 0 0 0 0 0 0 0 0 0 0 0 0 0 0 0 0 0 0 0 0 1 2 2 2 1 0 0 0 0 0 0 0 0 0 0 0 0
0 0 0 0 0 0 0 0 0 0 0 0 0 0 0 0 0 0 0 0 0 0 0 0 0 0 0 0 1 1 1 0 0 0 0 0 0 0 0 0 0 0 0 0

GEFSNGP_con_probscp_378.txt.gz
Probability
0 0 0 0 0 0 0 0 0 0 0 1 3 5 7 7 6 9 14 15 16 17 18 19 20 18 16 19 24 26 26 24 22 21 20 19 19 19 19 18 17 16 14 12
0 0 0 0 0 0 0 0 0 0 0 1 4 6 8 9 8 10 13 14 15 17 19 19 20 19 20 23 27 28 26 24 20 19 18 18 18 18 18 17 16 15 14 11
0 0 0 0 0 0 0 2 2 1 1 3 6 9 11 10 10 13 15 14 16 18 18 18 19 22 24 27 31 30 26 22 19 17 16 17 16 16 16 15 14 14 12 11
0 0 0 0 0 1 2 3 4 3 3 6 9 12 13 14 14 16 18 20 20 21 20 19 21 24 26 27 29 28 24 21 19 18 17 15 15 16 15 14 13 12 11 10
0 0 0 0 1 3 3 4 5 6 6 9 12 13 16 18 20 20 22 26 27 26 24 24 25 26 25 24 24 23 21 20 18 18 17 16 15 15 15 14 13 11 10 10
0 0 0 1 3 4 4 4 6 9 10 12 12 11 14 21 24 25 26 29 30 29 27 26 26 24 21 20 19 19 19 17 17 16 16 15 13 13 13 13 12 10 10 11
0 0 0 1 3 3 4 6 9 11 13 14 13 12 15 20 24 26 28 28 29 29 27 25 22 20 18 16 15 15 16 16 16 15 13 11 11 12 12 12 12 11 11 12
0 0 1 1 2 3 5 8 11 13 13 14 15 17 18 19 22 25 25 25 25 25 24 22 20 18 17 15 13 13 15 16 16 14 11 10 11 13 12 11 11 11 11 12
1 1 2 2 1 4 7 9 12 13 13 14 16 18 18 19 21 24 24 22 20 20 21 20 19 17 17 16 16 16 16 15 14 13 11 11 13 14 11 9 9 10 11 11
1 1 2 2 2 5 9 11 11 13 14 16 17 17 18 19 20 22 21 19 18 18 20 21 20 18 17 17 19 19 18 16 15 14 13 14 15 14 11 9 10 10 11 12
1 1 2 3 4 7 11 11 11 12 15 16 16 18 20 21 21 19 18 17 18 20 22 21 20 18 17 18 19 20 21 19 16 15 15 15 15 13 10 9 9 10 11 11
3 3 4 6 6 7 9 10 10 13 15 15 15 17 21 22 20 17 16 16 19 22 24 23 21 19 18 17 18 19 21 20 16 14 14 14 13 11 8 7 5 6 7 6
5 6 7 7 7 7 8 9 10 13 15 14 14 15 17 18 17 15 15 16 18 21 22 22 20 18 17 16 16 17 19 18 16 14 13 12 11 10 8 6 3 3 3 2
5 7 8 8 9 9 9 11 13 15 16 14 12 11 11 11 12 13 13 15 15 17 18 18 17 17 17 16 15 15 16 16 16 15 13 11 10 10 9 8 6 4 3 2
5 7 8 9 10 11 12 15 17 18 16 13 10 7 6 7 8 9 10 11 11 12 13 14 14 15 16 16 15 15 15 14 14 15 14 12 11 10 10 9 7 5 5 4
6 6 8 10 12 13 14 16 18 17 15 11 6 3 3 4 5 6 7 8 10 11 12 13 13 13 15 14 13 14 14 12 12 12 12 12 11 10 9 8 7 6 6 6
6 6 8 11 13 14 15 16 15 13 11 7 3 1 1 2 4 5 7 8 11 13 14 14 14 13 13 13 11 11 11 10 10 10 11 11 10 10 9 7 6 5 6 6
6 6 7 10 11 12 12 11 10 8 6 3 1 0 1 2 5 6 7 9 12 15 16 14 12 12 12 11 10 9 8 8 9 10 9 8 8 9 8 6 5 5 5 4
6 6 7 7 7 8 7 6 6 5 3 1 1 1 2 4 5 6 5 5 8 12 13 11 7 8 10 10 9 9 8 7 8 9 8 7 7 8 7 5 4 4 3 2
5 5 5 5 4 3 3 3 4 3 3 2 2 2 3 4 4 4 3 2 3 7 8 6 4 5 8 8 8 8 7 7 7 7 7 7 6 7 6 4 3 3 2 2
4 4 3 3 3 2 3 3 3 3 3 3 2 2 2 3 3 2 1 1 1 3 4 3 4 5 5 6 7 8 8 7 7 7 7 6 6 6 5 4 3 2 2 2
5 4 3 2 1 1 2 2 2 2 2 1 1 1 1 2 2 1 1 1 1 1 2 3 4 4 3 3 5 7 7 7 8 7 6 6 6 5 5 4 3 2 2 2
5 6 4 2 1 1 1 1 1 0 1 1 0 0 0 1 1 0 0 0 0 0 1 2 2 1 1 1 3 4 5 5 6 6 4 4 5 5 5 4 3 2 3 3
4 5 5 2 2 1 1 1 1 1 1 1 0 0 0 0 0 0 0 0 0 0 1 1 1 0 0 1 1 2 2 3 3 3 2 2 2 3 4 4 3 3 3 3
3 4 4 3 2 1 1 1 1 1 2 1 0 0 0 0 0 0 0 0 0 0 0 0 0 0 0 0 0 0 1 1 1 1 0 0 0 1 3 3 3 3 3 3
4 5 5 3 2 1 1 1 1 1 1 1 0 0 0 0 1 1 1 0 0 0 0 1 1 0 0 0 0 0 0 0 0 0 0 0 0 1 2 3 3 3 3 3
4 6 5 2 1 1 1 2 2 1 1 0 0 0 0 1 2 2 2 1 0 0 1 2 2 1 1 1 0 0 0 0 0 0 0 0 1 1 2 3 3 3 3 2